[[{"header":{"parameterUnit":"m.s-1","parameterCategory":2,"la1":30.2991,"la2":30.254,"lo1":-89.0895,"lo2":-89.0444,"dy":0.0017,"dx":0.0017,"nx":28,"ny":28,"refTime":"2025-11-19T09:00:00:Z","depth":"0","parameterNumber":2,"parameterNumberName":"U-component_of_CURRENTS"},"data":[0,0,0,0,0,0,0,0,0,0,0,0,0,0,0,0,0,0,0,0,0,0,0,0,0,0,0,0,0,0,0,0,0,0,0,0,0,0,0,0,0,0,0,0,0,0,0,0,0,0,0,0,0,0,0,0,0,0,-0.2624,-0.2623,0,-0.2505,-0.2503,-0.2501,-0.2351,-0.2349,-0.2348,-0.2346,-0.2131,-0.2126,-0.2122,0,0,0,0,0,0,0,0,0,0,0,0,0,-0.2531,-0.2533,-0.2624,-0.2623,-0.2623,-0.2506,-0.2503,-0.25,-0.2351,-0.2349,-0.2347,-0.2346,-0.2132,-0.2127,-0.2122,0,0,0,0,0,0,0,0,0,0,0,0,0,-0.2498,-0.2534,-0.2624,-0.2542,-0.2534,-0.2506,-0.2503,-0.25,-0.2351,-0.2349,-0.2347,-0.2345,-0.2134,-0.2127,-0.2121,-0.2124,0,0,-0.2101,-0.2098,0,0,0,0,0,0,0,0,-0.25,-0.25,-0.2554,-0.2547,-0.2539,-0.245,-0.2392,-0.2373,-0.2352,-0.2409,-0.2346,-0.2344,-0.2237,-0.2222,-0.2191,-0.2114,-0.2105,-0.21,-0.2096,-0.2093,-0.2092,0,0,0,0,0,0,0,-0.2503,-0.2504,-0.2566,-0.2554,-0.2545,-0.2447,-0.244,-0.2386,-0.2327,-0.2404,-0.2396,-0.24,-0.223,-0.2197,-0.2184,-0.2101,-0.21,-0.2095,-0.209,-0.2088,-0.2014,-0.2016,0,0,0,0,0,0,-0.2552,-0.2508,-0.257,-0.2564,-0.2526,-0.2452,-0.2444,-0.2472,-0.2329,-0.2309,-0.2402,-0.2394,-0.221,-0.2192,-0.2176,-0.2145,-0.2093,-0.2087,-0.2084,-0.2012,-0.2014,-0.2017,0,0,0,0,0,0,-0.2551,-0.256,-0.2575,-0.2539,-0.2535,-0.2458,-0.2489,-0.2471,-0.2445,-0.2331,-0.2306,-0.2397,-0.2207,-0.2185,-0.2143,-0.2136,-0.2084,-0.2078,-0.201,-0.2013,-0.2016,-0.21,0,0,0,0,0,0,-0.2549,-0.2561,-0.2592,-0.2544,-0.254,-0.2584,-0.2492,-0.2471,-0.2456,-0.2443,-0.2319,-0.2296,-0.2204,-0.2154,-0.2137,-0.2126,-0.2073,-0.2007,-0.2011,-0.2015,-0.2094,-0.2105,-0.2114,0,0,0,0,0,-0.2547,-0.2605,-0.2595,-0.2602,-0.2589,-0.2587,-0.2576,-0.2503,-0.2459,-0.2466,-0.2379,-0.23,-0.2165,-0.2151,-0.213,-0.2117,-0.2005,-0.201,-0.2014,-0.209,-0.2103,-0.2114,0,0,0,0,0,0,-0.2576,-0.2595,-0.2582,-0.2642,-0.2631,-0.2566,-0.2564,-0.2528,-0.2465,-0.244,-0.2325,-0.2298,-0.2255,-0.2199,-0.2187,-0.2115,-0.2073,-0.2073,-0.2137,-0.2149,-0.2159,-0.2144,-0.2068,0,0,0,0,0,-0.2608,-0.2649,-0.2648,-0.2689,-0.2693,-0.2635,-0.2624,-0.2583,-0.2528,-0.2496,-0.2414,-0.2329,-0.226,-0.2217,-0.2154,-0.2121,-0.2061,-0.2104,-0.2114,-0.2123,-0.2102,-0.2029,-0.2029,-0.2031,-0.2031,-0.2031,0,0,-0.2632,-0.2644,-0.2669,-0.2698,-0.267,-0.2668,-0.2619,-0.2617,-0.2592,-0.2486,-0.2426,-0.2366,-0.2266,-0.2215,-0.2191,-0.2162,-0.2101,-0.2128,-0.2136,-0.2109,-0.2033,-0.2032,-0.2031,-0.2034,-0.2034,-0.2033,0,0,-0.2672,-0.2713,-0.2745,-0.2746,-0.2739,-0.2708,-0.2724,-0.2681,-0.2641,-0.2607,-0.2512,-0.246,-0.2365,-0.2279,-0.2225,-0.2264,-0.2164,-0.2254,-0.2271,-0.2202,-0.22,-0.2197,-0.2154,-0.2147,-0.2248,-0.2249,-0.2249,0,-0.2696,-0.2732,-0.2752,-0.2765,-0.2755,-0.2735,-0.2737,-0.2709,-0.2652,-0.2615,-0.2602,-0.245,-0.2383,-0.2286,-0.2295,-0.2278,-0.2233,-0.2226,-0.221,-0.2206,-0.2202,-0.2158,-0.2149,-0.2253,-0.2253,-0.2252,-0.2252,0,-0.273,-0.2762,-0.278,-0.2785,-0.2788,-0.2795,-0.2772,-0.2759,-0.272,-0.2669,-0.2598,-0.2518,-0.2414,-0.2403,-0.235,-0.2286,-0.2265,-0.2238,-0.2171,-0.2206,-0.2159,-0.2148,-0.226,-0.2258,-0.2257,-0.2256,0,0,-0.2756,-0.2799,-0.2794,-0.2788,-0.2795,-0.2787,-0.2779,-0.2743,-0.2701,-0.2666,-0.2597,-0.2514,-0.2469,-0.2408,-0.2348,-0.2294,-0.2249,-0.2257,-0.2251,-0.22,-0.2108,-0.2068,-0.2051,-0.2212,-0.221,-0.2208,-0.21,0,-0.2758,-0.2776,-0.2799,-0.2794,-0.2794,-0.2788,-0.2769,-0.2734,-0.2696,-0.2637,-0.2567,-0.2484,-0.247,-0.2415,-0.2367,-0.2265,-0.2217,-0.2281,-0.2094,-0.2089,-0.2034,-0.2035,-0.1935,-0.1827,-0.2088,-0.2086,-0.2085,0,-0.2749,-0.2762,-0.2764,-0.2767,-0.2766,-0.2762,-0.2708,-0.2695,-0.2633,-0.2599,-0.2533,-0.2473,-0.2384,-0.2378,-0.2228,-0.2268,-0.2195,-0.2135,-0.2128,-0.204,-0.2024,-0.1829,-0.1795,-0.1777,-0.2066,-0.2068,-0.2069,0,-0.2685,-0.2722,-0.2712,-0.2715,-0.2727,-0.2715,-0.2712,-0.2666,-0.2621,-0.2567,-0.2509,-0.2429,-0.2348,-0.2266,-0.2161,-0.2179,-0.2005,-0.2008,-0.1907,-0.1905,-0.1754,-0.1742,-0.1656,-0.19,-0.19,-0.19,-0.1901,0,-0.265,-0.2635,-0.2683,-0.2672,-0.2633,-0.2673,-0.2615,-0.2603,-0.2564,-0.2484,-0.2474,-0.2379,-0.231,-0.2207,-0.2143,-0.1987,-0.1984,-0.1894,-0.186,-0.1789,-0.1781,-0.1704,-0.173,-0.1896,-0.1897,-0.1898,-0.1899,0,-0.255,-0.2595,-0.2572,-0.2598,-0.2597,-0.2559,-0.2545,-0.2494,-0.2494,-0.2392,-0.2365,-0.2302,-0.2181,-0.2117,-0.1972,-0.1926,-0.1764,-0.1756,-0.1699,-0.166,-0.156,-0.1595,-0.146,-0.1424,-0.1622,-0.162,-0.1618,0,-0.2492,-0.2475,-0.2481,-0.2446,-0.2452,-0.2425,-0.2386,-0.2423,-0.2376,-0.232,-0.2246,-0.2146,-0.2023,-0.1845,-0.1754,-0.1634,-0.1655,-0.1498,-0.1512,-0.1524,-0.1537,-0.1579,-0.1563,-0.1361,-0.1357,-0.1354,-0.1352,0,-0.2346,-0.2348,-0.2321,-0.2277,-0.2241,-0.2204,-0.2181,-0.2146,-0.2171,-0.2093,-0.199,-0.1907,-0.1773,-0.1601,-0.1499,-0.143,-0.1464,-0.1435,-0.1431,-0.1307,-0.1356,-0.1315,-0.1501,-0.1326,-0.1329,-0.133,-0.1332,-0.1333,-0.2192,-0.214,-0.2114,-0.2052,-0.2023,-0.1973,-0.1873,-0.187,-0.1783,-0.161,-0.1706,-0.1468,-0.1466,-0.1292,-0.1247,-0.116,-0.124,-0.1122,-0.1158,-0.1198,-0.1168,-0.1324,-0.1127,-0.1128,-0.1129,-0.113,-0.1131,0,-0.1964,-0.1941,-0.1887,-0.1811,-0.1711,-0.1772,-0.1697,-0.1563,-0.1401,-0.1267,-0.114,-0.0994,-0.0926,-0.0937,-0.0934,-0.0892,-0.0897,-0.0898,-0.0922,-0.0915,-0.1005,-0.0999,-0.0784,-0.0784,-0.0784,-0.0784,-0.0784,-0.0784,-0.1821,-0.1708,-0.1705,-0.151,-0.146,-0.1268,-0.1185,-0.1038,-0.0892,-0.0584,-0.0378,-0.0318,-0.0522,-0.0753,-0.079,-0.0769,-0.0782,-0.0752,-0.0815,-0.0879,-0.0903,-0.0926,-0.0925,-0.0698,-0.0698,-0.0668,-0.0668,-0.0668]},{"header":{"parameterUnit":"m.s-1","parameterCategory":2,"la1":30.2991,"la2":30.254,"lo1":-89.0895,"lo2":-89.0444,"dy":0.0017,"dx":0.0017,"nx":28,"ny":28,"refTime":"2025-11-19T09:00:00:Z","depth":"0","parameterNumber":3,"parameterNumberName":"V-component_of_CURRENTS"},"data":[0,0,0,0,0,0,0,0,0,0,0,0,0,0,0,0,0,0,0,0,0,0,0,0,0,0,0,0,0,0,0,0,0,0,0,0,0,0,0,0,0,0,0,0,0,0,0,0,0,0,0,0,0,0,0,0,0,0,0.077,0.0771,0,0.0916,0.0918,0.092,0.0985,0.0985,0.0984,0.0984,0.1138,0.1143,0.1147,0,0,0,0,0,0,0,0,0,0,0,0,0,0.0647,0.0649,0.077,0.0771,0.0773,0.0916,0.0918,0.092,0.0985,0.0985,0.0984,0.0984,0.1137,0.1142,0.1147,0,0,0,0,0,0,0,0,0,0,0,0,0,0.0739,0.0649,0.0769,0.0822,0.0828,0.0915,0.0918,0.0921,0.0985,0.0985,0.0984,0.0984,0.1135,0.1142,0.1148,0.1199,0,0,0.1168,0.1171,0,0,0,0,0,0,0,0,0.0734,0.0744,0.0812,0.0818,0.0825,0.093,0.0931,0.1013,0.0985,0.0927,0.0984,0.0983,0.1069,0.1081,0.1112,0.1206,0.1212,0.1169,0.1173,0.1176,0.1178,0,0,0,0,0,0,0,0.0727,0.0738,0.0829,0.0814,0.0822,0.0872,0.0884,0.0948,0.1,0.0932,0.0937,0.0951,0.1073,0.1105,0.1116,0.1215,0.1169,0.1175,0.1179,0.1181,0.1378,0.1379,0,0,0,0,0,0,0.0701,0.0732,0.0825,0.0833,0.0775,0.0874,0.0887,0.0898,0.1,0.1014,0.0951,0.0953,0.1094,0.1108,0.1121,0.1183,0.1176,0.1182,0.1186,0.1377,0.1378,0.138,0,0,0,0,0,0,0.0698,0.0708,0.0819,0.0785,0.0802,0.0876,0.0888,0.0901,0.0925,0.1013,0.1028,0.0959,0.1094,0.1112,0.1183,0.119,0.1185,0.1191,0.1375,0.1377,0.1379,0.131,0,0,0,0,0,0,0.0694,0.0706,0.0698,0.0783,0.0803,0.0856,0.0889,0.0905,0.0934,0.0938,0.1026,0.104,0.1095,0.1173,0.1189,0.1199,0.1196,0.1374,0.1376,0.1378,0.131,0.1309,0.1308,0,0,0,0,0,0.0689,0.0666,0.0697,0.0708,0.0792,0.0855,0.087,0.0923,0.0934,0.0942,0.1012,0.1037,0.1199,0.1179,0.1199,0.121,0.1372,0.1375,0.1378,0.1311,0.1309,0.1308,0,0,0,0,0,0,0.0602,0.0674,0.0708,0.0708,0.0775,0.0865,0.0865,0.0913,0.0975,0.097,0.1056,0.1077,0.1145,0.119,0.1166,0.1276,0.1289,0.1296,0.1231,0.1231,0.1229,0.1181,0.1201,0,0,0,0,0,0.0582,0.0583,0.0676,0.0673,0.0698,0.0783,0.0811,0.0854,0.0923,0.0949,0.1025,0.11,0.1176,0.1209,0.1284,0.1339,0.1353,0.136,0.1359,0.1357,0.1334,0.1397,0.1398,0.1389,0.1389,0.1389,0,0,0.0552,0.0584,0.059,0.0654,0.0702,0.0731,0.0797,0.0828,0.0861,0.0956,0.1016,0.1101,0.1192,0.1263,0.1296,0.1296,0.136,0.1361,0.1358,0.1336,0.14,0.14,0.1401,0.1391,0.139,0.139,0,0,0.0472,0.0516,0.0489,0.054,0.0603,0.0672,0.0677,0.0778,0.0825,0.0905,0.0984,0.107,0.1182,0.1256,0.1304,0.1339,0.1357,0.1364,0.1312,0.1374,0.1374,0.1374,0.1349,0.1348,0.1357,0.1356,0.1356,0,0.0429,0.0418,0.0493,0.0485,0.0517,0.0637,0.0635,0.071,0.0828,0.087,0.0907,0.1099,0.1178,0.1267,0.1283,0.1333,0.1339,0.1305,0.1368,0.1369,0.1371,0.1345,0.1345,0.1353,0.1354,0.1354,0.1354,0,0.0337,0.034,0.0326,0.0365,0.0413,0.0431,0.055,0.0609,0.0693,0.0784,0.09,0.1035,0.1139,0.1193,0.1247,0.1309,0.1296,0.1361,0.1359,0.1366,0.134,0.134,0.1349,0.135,0.1351,0.1352,0,0,0.022,0.0255,0.0248,0.0261,0.0355,0.0389,0.0444,0.0545,0.0587,0.0728,0.0794,0.0952,0.1035,0.1094,0.1195,0.1255,0.1271,0.1297,0.1301,0.1244,0.1335,0.1255,0.1248,0.1347,0.1348,0.1348,0.1294,0,0.013,0.0075,0.0133,0.0131,0.0135,0.0264,0.0316,0.0423,0.054,0.0644,0.0801,0.0907,0.0996,0.1053,0.1129,0.126,0.1277,0.1274,0.1359,0.1359,0.1268,0.1249,0.1272,0.122,0.1295,0.1295,0.1295,0,0.0017,0.0009,-0.0039,0.0034,0.0048,0.0074,0.0184,0.0251,0.042,0.0509,0.0639,0.0777,0.0904,0.0984,0.1146,0.1138,0.1204,0.129,0.1292,0.1239,0.1282,0.1239,0.1219,0.1315,0.1296,0.1296,0.1296,0,-0.0116,-0.0103,-0.0147,-0.0126,-0.003,-0.0016,0.0052,0.0196,0.0264,0.0422,0.0482,0.0666,0.0757,0.0899,0.1065,0.1107,0.1215,0.1306,0.1273,0.1265,0.1309,0.1304,0.1373,0.1371,0.1371,0.1371,0.1371,0,-0.0235,-0.0257,-0.0212,-0.0228,-0.023,-0.0128,-0.0093,-0.0002,0.0136,0.0213,0.0397,0.0477,0.0744,0.0859,0.1007,0.1111,0.1159,0.123,0.1253,0.128,0.1274,0.138,0.142,0.1369,0.1369,0.137,0.137,0,-0.0369,-0.0357,-0.0378,-0.0317,-0.0299,-0.0299,-0.0191,-0.0145,-0.0027,0.0072,0.0114,0.0327,0.0465,0.0674,0.0891,0.1004,0.1173,0.1148,0.1107,0.1127,0.1197,0.1231,0.1247,0.1297,0.1113,0.1111,0.1109,0,-0.0434,-0.0477,-0.0462,-0.0466,-0.044,-0.0411,-0.0375,-0.0247,-0.0182,-0.0018,0.0024,0.0163,0.0322,0.0554,0.0752,0.093,0.1051,0.1024,0.1126,0.1163,0.1223,0.1245,0.1292,0.1145,0.1144,0.1142,0.1141,0,-0.0513,-0.053,-0.0539,-0.0562,-0.0551,-0.0522,-0.046,-0.0425,-0.0261,-0.0144,0.0013,0.0142,0.0301,0.054,0.07,0.0823,0.1076,0.1,0.1107,0.1277,0.1246,0.1319,0.1154,0.1131,0.1132,0.1133,0.1134,0.1134,-0.0529,-0.0571,-0.0586,-0.0591,-0.0607,-0.0569,-0.0493,-0.0395,-0.0251,0.0029,0.0068,0.0375,0.0487,0.0742,0.0817,0.0957,0.0969,0.1097,0.1133,0.115,0.1208,0.0942,0.0913,0.0912,0.0912,0.0912,0.0912,0,-0.0448,-0.052,-0.0579,-0.0565,-0.0568,-0.0568,-0.0479,-0.0343,-0.0116,0.0129,0.0383,0.0748,0.0886,0.0967,0.1059,0.1153,0.1218,0.1204,0.1314,0.1361,0.1202,0.1216,0.117,0.117,0.117,0.117,0.117,0.117,-0.0398,-0.043,-0.0479,-0.0471,-0.048,-0.0376,-0.0291,-0.0115,0.0092,0.0557,0.0914,0.1159,0.1219,0.1262,0.1347,0.1364,0.1497,0.1427,0.1493,0.1465,0.1461,0.1458,0.1485,0.1496,0.1496,0.169,0.1692,0.1693]}],[{"header":{"parameterUnit":"m.s-1","parameterCategory":2,"la1":30.2991,"la2":30.254,"lo1":-89.0895,"lo2":-89.0444,"dy":0.0017,"dx":0.0017,"nx":28,"ny":28,"refTime":"2025-11-19T09:00:00:Z","depth":"2","parameterNumber":2,"parameterNumberName":"U-component_of_CURRENTS"},"data":[0,0,0,0,0,0,0,0,0,0,0,0,0,0,0,0,0,0,0,0,0,0,0,0,0,0,0,0,0,0,0,0,0,0,0,0,0,0,0,0,0,0,0,0,0,0,0,0,0,0,0,0,0,0,0,0,0,0,-0.187,-0.1871,0,-0.196,-0.1961,-0.1962,-0.2021,-0.2022,-0.2022,-0.2022,-0.2242,-0.2247,-0.2253,0,0,0,0,0,0,0,0,0,0,0,0,0,-0.1737,-0.1739,-0.187,-0.1871,-0.1872,-0.196,-0.1961,-0.1962,-0.2021,-0.2022,-0.2022,-0.2023,-0.224,-0.2247,-0.2253,0,0,0,0,0,0,0,0,0,0,0,0,0,-0.1809,-0.174,-0.1869,-0.1911,-0.1916,-0.1959,-0.1961,-0.1963,-0.2021,-0.2022,-0.2022,-0.2023,-0.2238,-0.2246,-0.2254,-0.2296,0,0,-0.228,-0.2283,0,0,0,0,0,0,0,0,-0.1804,-0.1813,-0.1904,-0.1908,-0.1914,-0.1979,-0.1995,-0.208,-0.2021,-0.1982,-0.2022,-0.2023,-0.2165,-0.218,-0.2195,-0.2307,-0.2316,-0.2281,-0.2286,-0.2289,-0.2292,0,0,0,0,0,0,0,-0.1799,-0.181,-0.1906,-0.1905,-0.1911,-0.1921,-0.1932,-0.2011,-0.2073,-0.1986,-0.199,-0.1998,-0.2169,-0.2186,-0.2201,-0.2319,-0.228,-0.2288,-0.2293,-0.2296,-0.2568,-0.257,0,0,0,0,0,0,-0.1787,-0.1805,-0.1903,-0.1909,-0.1858,-0.1923,-0.1936,-0.1958,-0.207,-0.2086,-0.1998,-0.2001,-0.2172,-0.2191,-0.2209,-0.2367,-0.2289,-0.2297,-0.2302,-0.2566,-0.2568,-0.2571,0,0,0,0,0,0,-0.1784,-0.1796,-0.19,-0.1857,-0.1871,-0.1925,-0.195,-0.196,-0.2002,-0.2077,-0.2096,-0.2033,-0.2173,-0.2197,-0.2302,-0.2372,-0.2301,-0.2308,-0.2563,-0.2566,-0.2569,-0.2618,0,0,0,0,0,0,-0.178,-0.1794,-0.1808,-0.1857,-0.1873,-0.194,-0.195,-0.1961,-0.2005,-0.201,-0.2113,-0.2132,-0.2175,-0.229,-0.2311,-0.2382,-0.2315,-0.256,-0.2565,-0.2568,-0.2613,-0.2622,-0.263,0,0,0,0,0,-0.1775,-0.1798,-0.1808,-0.182,-0.189,-0.194,-0.195,-0.1989,-0.2006,-0.2029,-0.2102,-0.213,-0.2331,-0.2298,-0.2322,-0.2398,-0.2558,-0.2563,-0.2568,-0.261,-0.2621,-0.263,0,0,0,0,0,0,-0.1746,-0.1807,-0.182,-0.1859,-0.1899,-0.195,-0.1977,-0.2002,-0.2075,-0.2094,-0.216,-0.2185,-0.2313,-0.2338,-0.23,-0.2486,-0.245,-0.246,-0.2474,-0.2484,-0.2493,-0.2417,-0.2322,0,0,0,0,0,-0.1743,-0.1794,-0.1831,-0.1873,-0.1886,-0.1934,-0.196,-0.1992,-0.2057,-0.2089,-0.2159,-0.2244,-0.2348,-0.2399,-0.2484,-0.2578,-0.2513,-0.2641,-0.2649,-0.2656,-0.261,-0.2563,-0.2561,-0.2587,-0.2587,-0.2587,0,0,-0.1749,-0.179,-0.1819,-0.1872,-0.1907,-0.1947,-0.1953,-0.2007,-0.2058,-0.2106,-0.2206,-0.2287,-0.2381,-0.2498,-0.2555,-0.2529,-0.2618,-0.2662,-0.2668,-0.2617,-0.2568,-0.2565,-0.2561,-0.259,-0.259,-0.2589,0,0,-0.1781,-0.1814,-0.1854,-0.1898,-0.1953,-0.1975,-0.1993,-0.2053,-0.2093,-0.2183,-0.2253,-0.2347,-0.2486,-0.256,-0.2619,-0.2717,-0.2673,-0.2774,-0.275,-0.2708,-0.2703,-0.2699,-0.2613,-0.26,-0.2766,-0.2767,-0.2767,0,-0.1777,-0.1836,-0.1872,-0.1924,-0.1956,-0.199,-0.2026,-0.2081,-0.2174,-0.2198,-0.222,-0.2403,-0.2506,-0.2629,-0.2681,-0.2736,-0.2676,-0.271,-0.2713,-0.2707,-0.2701,-0.2614,-0.2599,-0.277,-0.2769,-0.2769,-0.2769,0,-0.1841,-0.1887,-0.1918,-0.1992,-0.2025,-0.2075,-0.2128,-0.2178,-0.2217,-0.225,-0.2359,-0.2466,-0.255,-0.2637,-0.2701,-0.2751,-0.271,-0.2735,-0.2673,-0.27,-0.2609,-0.2592,-0.2774,-0.2773,-0.2772,-0.2771,0,0,-0.1814,-0.1934,-0.1946,-0.1978,-0.2064,-0.2093,-0.2172,-0.2217,-0.2237,-0.2328,-0.2343,-0.2545,-0.2553,-0.2616,-0.271,-0.2697,-0.2652,-0.2699,-0.2695,-0.2586,-0.2506,-0.2412,-0.2384,-0.267,-0.2668,-0.2666,-0.2457,0,-0.1838,-0.1933,-0.1987,-0.2062,-0.2089,-0.2151,-0.2208,-0.2265,-0.2291,-0.2317,-0.2402,-0.2472,-0.2563,-0.2608,-0.2612,-0.2676,-0.2609,-0.2702,-0.2517,-0.251,-0.2401,-0.2363,-0.224,-0.2037,-0.244,-0.2437,-0.2435,0,-0.1862,-0.1914,-0.1989,-0.2065,-0.2081,-0.2136,-0.2177,-0.2238,-0.2284,-0.2303,-0.2341,-0.2381,-0.2457,-0.2486,-0.2492,-0.2545,-0.2499,-0.2498,-0.249,-0.2357,-0.2384,-0.2079,-0.1991,-0.2406,-0.2409,-0.2411,-0.2413,0,-0.1796,-0.1907,-0.1958,-0.2001,-0.2094,-0.2132,-0.2179,-0.2227,-0.2237,-0.2277,-0.2245,-0.2318,-0.2339,-0.2325,-0.2348,-0.2412,-0.2262,-0.2353,-0.2185,-0.2177,-0.2007,-0.1988,-0.2228,-0.2228,-0.2229,-0.223,-0.223,0,-0.1788,-0.1828,-0.194,-0.1971,-0.1999,-0.2094,-0.2103,-0.2156,-0.2181,-0.2158,-0.2226,-0.2194,-0.2289,-0.2233,-0.2256,-0.2151,-0.2175,-0.2126,-0.2105,-0.2024,-0.201,-0.229,-0.23,-0.2222,-0.2223,-0.2225,-0.2226,0,-0.1717,-0.1806,-0.1849,-0.1946,-0.197,-0.1995,-0.205,-0.2044,-0.2091,-0.205,-0.2056,-0.208,-0.2043,-0.2047,-0.2013,-0.2007,-0.1943,-0.1863,-0.1741,-0.171,-0.1906,-0.1922,-0.1686,-0.1681,-0.1676,-0.1672,-0.1669,0,-0.1699,-0.1716,-0.1799,-0.1797,-0.1845,-0.1889,-0.19,-0.1987,-0.1974,-0.1972,-0.1934,-0.1882,-0.1824,-0.1713,-0.1695,-0.1613,-0.1724,-0.1429,-0.1546,-0.184,-0.1845,-0.1868,-0.1889,-0.1338,-0.1333,-0.1328,-0.1324,0,-0.1612,-0.1649,-0.1672,-0.1671,-0.1691,-0.1703,-0.1741,-0.1722,-0.1803,-0.177,-0.1718,-0.1671,-0.1563,-0.1449,-0.1328,-0.1297,-0.1467,-0.1332,-0.1622,-0.1515,-0.1501,-0.1511,-0.1545,-0.1283,-0.1287,-0.129,-0.1293,-0.1294,-0.1518,-0.1502,-0.1522,-0.1514,-0.1525,-0.1511,-0.1477,-0.1513,-0.1486,-0.1439,-0.1498,-0.1389,-0.1358,-0.1144,-0.1058,-0.1009,-0.1144,-0.1132,-0.1151,-0.1173,-0.1191,-0.1172,-0.0891,-0.0893,-0.0895,-0.0896,-0.0897,0,-0.1367,-0.1364,-0.135,-0.133,-0.1288,-0.1353,-0.1342,-0.1294,-0.123,-0.1232,-0.1188,-0.1042,-0.0921,-0.0895,-0.075,-0.0721,-0.0775,-0.0703,-0.0785,-0.0824,-0.0859,-0.0867,-0.0478,-0.0477,-0.0476,-0.0475,0,0,-0.1279,-0.1212,-0.1214,-0.1101,-0.1089,-0.1004,-0.0977,-0.0937,-0.0915,-0.0847,-0.0806,-0.0867,-0.0856,-0.0673,-0.0619,-0.0519,-0.0677,-0.0493,-0.0825,-0.0958,-0.0992,-0.109,-0.1143,0,0,0,0,0]},{"header":{"parameterUnit":"m.s-1","parameterCategory":2,"la1":30.2991,"la2":30.254,"lo1":-89.0895,"lo2":-89.0444,"dy":0.0017,"dx":0.0017,"nx":28,"ny":28,"refTime":"2025-11-19T09:00:00:Z","depth":"2","parameterNumber":3,"parameterNumberName":"V-component_of_CURRENTS"},"data":[0,0,0,0,0,0,0,0,0,0,0,0,0,0,0,0,0,0,0,0,0,0,0,0,0,0,0,0,0,0,0,0,0,0,0,0,0,0,0,0,0,0,0,0,0,0,0,0,0,0,0,0,0,0,0,0,0,0,-0.0704,-0.0703,0,-0.0689,-0.0689,-0.0689,-0.07,-0.07,-0.07,-0.07,-0.052,-0.0515,-0.0511,0,0,0,0,0,0,0,0,0,0,0,0,0,-0.0694,-0.0695,-0.0704,-0.0703,-0.0702,-0.0688,-0.0689,-0.0689,-0.07,-0.07,-0.07,-0.07,-0.0521,-0.0516,-0.051,0,0,0,0,0,0,0,0,0,0,0,0,0,-0.0696,-0.0696,-0.0704,-0.0702,-0.0702,-0.0688,-0.0689,-0.0689,-0.07,-0.07,-0.07,-0.07,-0.0523,-0.0516,-0.0509,-0.0466,0,0,-0.0487,-0.0484,0,0,0,0,0,0,0,0,-0.0696,-0.0697,-0.0703,-0.0702,-0.0701,-0.0691,-0.0619,-0.0604,-0.07,-0.0707,-0.07,-0.07,-0.0558,-0.0548,-0.0556,-0.0457,-0.0449,-0.0487,-0.0482,-0.0479,-0.0477,0,0,0,0,0,0,0,-0.0696,-0.0698,-0.0703,-0.0702,-0.0701,-0.0685,-0.0687,-0.0617,-0.0634,-0.0706,-0.0705,-0.0695,-0.0557,-0.0563,-0.0551,-0.0447,-0.0487,-0.0481,-0.0476,-0.0473,-0.025,-0.0248,0,0,0,0,0,0,-0.069,-0.0698,-0.0704,-0.0702,-0.0692,-0.0685,-0.0687,-0.0699,-0.0638,-0.0629,-0.0695,-0.0695,-0.0575,-0.0559,-0.0544,-0.0433,-0.0479,-0.0473,-0.0469,-0.0251,-0.025,-0.0248,0,0,0,0,0,0,-0.069,-0.0691,-0.0704,-0.0694,-0.0694,-0.0685,-0.0699,-0.0699,-0.0692,-0.0631,-0.0619,-0.0686,-0.0575,-0.0554,-0.0504,-0.0428,-0.0469,-0.0463,-0.0253,-0.0251,-0.0249,-0.0245,0,0,0,0,0,0,-0.069,-0.0692,-0.071,-0.0694,-0.0694,-0.07,-0.0698,-0.0698,-0.0683,-0.0684,-0.0618,-0.0603,-0.0573,-0.0515,-0.0497,-0.0419,-0.0457,-0.0255,-0.0252,-0.0249,-0.0247,-0.0243,-0.0239,0,0,0,0,0,-0.069,-0.0698,-0.0712,-0.0712,-0.0716,-0.0699,-0.0699,-0.0695,-0.0682,-0.0687,-0.0656,-0.0605,-0.048,-0.051,-0.0488,-0.0406,-0.0257,-0.0253,-0.025,-0.0249,-0.0243,-0.0239,0,0,0,0,0,0,-0.07,-0.0699,-0.0714,-0.0723,-0.0717,-0.0699,-0.069,-0.0685,-0.0667,-0.066,-0.0606,-0.0589,-0.0504,-0.0468,-0.0501,-0.0333,-0.0349,-0.0341,-0.0355,-0.0349,-0.0345,-0.0338,-0.0451,0,0,0,0,0,-0.0713,-0.0718,-0.0716,-0.0721,-0.0714,-0.0702,-0.0694,-0.0695,-0.0669,-0.0662,-0.0623,-0.0557,-0.0473,-0.0429,-0.0369,-0.0289,-0.0271,-0.0215,-0.0211,-0.0208,-0.0188,-0.0124,-0.0112,-0.0236,-0.0236,-0.0236,0,0,-0.0722,-0.0713,-0.0723,-0.0724,-0.0712,-0.0701,-0.0698,-0.0682,-0.0663,-0.0638,-0.0599,-0.0545,-0.0452,-0.0371,-0.0324,-0.0329,-0.0171,-0.0204,-0.0201,-0.0182,-0.0119,-0.0107,-0.0096,-0.0233,-0.0234,-0.0234,0,0,-0.0715,-0.0728,-0.0728,-0.0715,-0.0698,-0.0694,-0.0685,-0.0674,-0.0658,-0.0638,-0.0579,-0.0522,-0.042,-0.0347,-0.0287,-0.0224,-0.0156,-0.0155,-0.0116,-0.0055,-0.0045,-0.0035,-0.0038,-0.0028,-0.0148,-0.0148,-0.0148,0,-0.0729,-0.0733,-0.0724,-0.0703,-0.0693,-0.0684,-0.0678,-0.0651,-0.0631,-0.06,-0.063,-0.0473,-0.0417,-0.0261,-0.0229,-0.0213,-0.0169,-0.0145,-0.0051,-0.004,-0.003,-0.0035,-0.0025,-0.0147,-0.0147,-0.0147,-0.0147,0,-0.0709,-0.072,-0.0702,-0.0688,-0.0676,-0.0666,-0.0632,-0.0615,-0.0609,-0.0585,-0.0485,-0.044,-0.0348,-0.0289,-0.0232,-0.008,-0.0072,-0.0061,-0.0069,-0.0018,-0.0027,-0.0016,-0.0146,-0.0146,-0.0147,-0.0147,0,0,-0.0737,-0.0708,-0.0703,-0.0706,-0.0674,-0.0662,-0.0609,-0.0569,-0.0528,-0.0503,-0.0446,-0.0309,-0.0284,-0.0212,-0.0123,-0.0044,0.0037,0.0008,0.0011,-0.0006,0.0165,0.0157,0.0167,0.01,0.0103,0.0105,0.0114,0,-0.0739,-0.072,-0.0697,-0.0687,-0.0688,-0.0649,-0.0606,-0.0554,-0.0524,-0.0469,-0.0375,-0.0296,-0.0243,-0.0192,-0.01,0.0013,0.0077,0.0032,0.013,0.0131,0.011,0.0184,0.0164,0.0174,0.0125,0.0127,0.0128,0,-0.0736,-0.0731,-0.0728,-0.0709,-0.07,-0.0683,-0.0624,-0.0582,-0.0471,-0.0442,-0.0345,-0.0278,-0.0133,-0.0127,0.0058,0.0049,0.0122,0.0183,0.0184,0.0193,0.0146,0.0127,0.0196,0.0146,0.0145,0.0143,0.0142,0,-0.0774,-0.0753,-0.0761,-0.0749,-0.0717,-0.0694,-0.0666,-0.0577,-0.053,-0.0413,-0.0386,-0.0231,-0.0169,-0.0037,0.0084,0.0098,0.0258,0.0253,0.0299,0.0295,0.0303,0.0296,0.0379,0.0379,0.0379,0.0379,0.0379,0,-0.0795,-0.0798,-0.078,-0.0782,-0.0775,-0.073,-0.0696,-0.0635,-0.0548,-0.0481,-0.0369,-0.0297,-0.0123,-0.0016,0.009,0.0222,0.0239,0.0328,0.0324,0.0298,0.0291,0.0295,0.0285,0.0379,0.0379,0.0379,0.0379,0,-0.0832,-0.0822,-0.0831,-0.0808,-0.0798,-0.0786,-0.0727,-0.0692,-0.0608,-0.0521,-0.048,-0.0326,-0.0182,-0.0048,0.0139,0.0207,0.0328,0.0368,0.0296,0.0287,0.0312,0.0303,0.0411,0.0411,0.0411,0.0412,0.0412,0,-0.0846,-0.0859,-0.0853,-0.0856,-0.0847,-0.0823,-0.0802,-0.0725,-0.068,-0.0536,-0.0492,-0.0336,-0.0207,0.0012,0.017,0.0313,0.034,0.0368,0.0393,0.0345,0.0329,0.0319,0.0309,0.0374,0.0374,0.0374,0.0374,0,-0.0878,-0.0875,-0.0878,-0.0891,-0.0885,-0.087,-0.083,-0.0806,-0.0697,-0.0624,-0.0496,-0.0387,-0.0155,0.0025,0.0211,0.0296,0.0342,0.0371,0.0375,0.0372,0.0313,0.0296,0.0287,0.0373,0.0373,0.0373,0.0373,0.0373,-0.0893,-0.0899,-0.0906,-0.0913,-0.0912,-0.0904,-0.0887,-0.0834,-0.0769,-0.0637,-0.0535,-0.0364,-0.0168,0.0103,0.0238,0.0358,0.0366,0.0397,0.0396,0.0396,0.0394,0.034,0.04,0.04,0.04,0.04,0.04,0,-0.0918,-0.0915,-0.0922,-0.0933,-0.0942,-0.0931,-0.0893,-0.0857,-0.0788,-0.0655,-0.0535,-0.0318,-0.0117,0.0081,0.0275,0.039,0.0389,0.0402,0.0384,0.0384,0.0384,0.0381,0.0384,0.0384,0.0385,0.0385,0,0,-0.0931,-0.094,-0.0938,-0.0954,-0.0961,-0.0954,-0.0935,-0.0867,-0.0765,-0.0628,-0.05,-0.0357,-0.0097,0.0029,0.0185,0.0293,0.0304,0.0298,0.0299,0.0259,0.0258,0.037,0.0364,0,0,0,0,0]}],[{"header":{"parameterUnit":"m.s-1","parameterCategory":2,"la1":30.2991,"la2":30.254,"lo1":-89.0895,"lo2":-89.0444,"dy":0.0017,"dx":0.0017,"nx":28,"ny":28,"refTime":"2025-11-19T09:00:00:Z","depth":"4","parameterNumber":2,"parameterNumberName":"U-component_of_CURRENTS"},"data":[0,0,0,0,0,0,0,0,0,0,0,0,0,0,0,0,0,0,0,0,0,0,0,0,0,0,0,0,0,0,0,0,0,0,0,0,0,0,0,0,0,0,0,0,0,0,0,0,0,0,0,0,0,0,0,0,0,0,-0.1003,-0.1004,0,-0.1049,-0.105,-0.105,-0.1063,-0.1063,-0.1063,-0.1063,-0.111,-0.1111,-0.1113,0,0,0,0,0,0,0,0,0,0,0,0,0,-0.0945,-0.0946,-0.1003,-0.1004,-0.1005,-0.1049,-0.105,-0.105,-0.1063,-0.1063,-0.1063,-0.1063,-0.111,-0.1111,-0.1113,0,0,0,0,0,0,0,0,0,0,0,0,0,-0.0977,-0.0946,-0.1003,-0.1018,-0.102,-0.1049,-0.105,-0.105,-0.1063,-0.1063,-0.1063,-0.1063,-0.1109,-0.1111,-0.1113,-0.1127,0,0,-0.1119,-0.112,0,0,0,0,0,0,0,0,-0.0975,-0.0979,-0.1015,-0.1017,-0.1019,-0.1052,-0.1047,-0.1077,-0.1063,-0.1045,-0.1063,-0.1063,-0.1092,-0.1095,-0.1102,-0.113,-0.1132,-0.1119,-0.112,-0.1121,-0.1122,0,0,0,0,0,0,0,-0.0973,-0.0977,-0.1019,-0.1016,-0.1018,-0.1029,-0.1033,-0.1052,-0.1067,-0.1046,-0.1048,-0.1056,-0.1093,-0.11,-0.1103,-0.1132,-0.1119,-0.1121,-0.1122,-0.1123,-0.1209,-0.121,0,0,0,0,0,0,-0.097,-0.0975,-0.1018,-0.1021,-0.0999,-0.103,-0.1035,-0.104,-0.1067,-0.1071,-0.1056,-0.1057,-0.1096,-0.11,-0.1105,-0.1158,-0.1121,-0.1123,-0.1124,-0.1207,-0.1209,-0.121,0,0,0,0,0,0,-0.0969,-0.0974,-0.1016,-0.1001,-0.1007,-0.1031,-0.1037,-0.1041,-0.1064,-0.1075,-0.1079,-0.1077,-0.1096,-0.1102,-0.1137,-0.1159,-0.1124,-0.1126,-0.1206,-0.1208,-0.1209,-0.1243,0,0,0,0,0,0,-0.0967,-0.0973,-0.0983,-0.1,-0.1008,-0.104,-0.1038,-0.1042,-0.1069,-0.107,-0.1094,-0.1097,-0.1097,-0.1134,-0.1139,-0.1161,-0.1127,-0.1205,-0.1207,-0.1209,-0.1241,-0.1246,-0.125,0,0,0,0,0,-0.0965,-0.0979,-0.0983,-0.0989,-0.1018,-0.1041,-0.1046,-0.1061,-0.107,-0.1081,-0.1102,-0.1097,-0.115,-0.1137,-0.1143,-0.1165,-0.1204,-0.1206,-0.1209,-0.1239,-0.1245,-0.125,0,0,0,0,0,0,-0.0959,-0.0982,-0.0987,-0.1007,-0.1026,-0.1044,-0.1063,-0.1073,-0.1099,-0.1108,-0.1114,-0.1119,-0.1159,-0.1159,-0.1144,-0.1196,-0.1175,-0.1179,-0.1196,-0.1202,-0.1207,-0.122,-0.1129,0,0,0,0,0,-0.0962,-0.0981,-0.0999,-0.1018,-0.1029,-0.105,-0.1065,-0.1077,-0.1099,-0.1111,-0.1127,-0.1148,-0.1171,-0.1184,-0.1203,-0.1233,-0.1215,-0.125,-0.1255,-0.1259,-0.1274,-0.1246,-0.1249,-0.1218,-0.1218,-0.1218,0,0,-0.0964,-0.0983,-0.0992,-0.1019,-0.1037,-0.1062,-0.1059,-0.109,-0.1116,-0.1113,-0.1158,-0.117,-0.1184,-0.1218,-0.1235,-0.1221,-0.1259,-0.1262,-0.1265,-0.1278,-0.1249,-0.1251,-0.1254,-0.122,-0.1219,-0.1219,0,0,-0.098,-0.0996,-0.1016,-0.1035,-0.1068,-0.1084,-0.1097,-0.1125,-0.1143,-0.1184,-0.1189,-0.121,-0.1251,-0.1256,-0.1266,-0.1308,-0.1287,-0.1321,-0.1354,-0.1326,-0.1328,-0.133,-0.131,-0.131,-0.132,-0.132,-0.132,0,-0.0983,-0.1007,-0.1025,-0.1051,-0.1072,-0.1097,-0.1122,-0.1148,-0.1185,-0.1199,-0.1204,-0.1254,-0.1266,-0.1295,-0.132,-0.1318,-0.1306,-0.1329,-0.1331,-0.1332,-0.1333,-0.1312,-0.1311,-0.1322,-0.1321,-0.1321,-0.1321,0,-0.1007,-0.1033,-0.105,-0.109,-0.1115,-0.1143,-0.1177,-0.1208,-0.1236,-0.1252,-0.1291,-0.1303,-0.1327,-0.1337,-0.1353,-0.1373,-0.1363,-0.134,-0.1312,-0.1338,-0.1315,-0.1313,-0.1324,-0.1324,-0.1323,-0.1323,0,0,-0.0994,-0.1053,-0.1061,-0.1081,-0.1137,-0.1156,-0.121,-0.1249,-0.127,-0.131,-0.1327,-0.1381,-0.1382,-0.1395,-0.14,-0.1393,-0.1394,-0.1387,-0.1384,-0.1362,-0.1346,-0.1255,-0.1244,-0.1371,-0.1371,-0.1371,-0.1327,0,-0.1006,-0.1055,-0.1085,-0.1134,-0.1158,-0.1199,-0.1238,-0.1279,-0.1308,-0.133,-0.1352,-0.1372,-0.1404,-0.141,-0.1416,-0.1397,-0.1393,-0.141,-0.1331,-0.133,-0.124,-0.124,-0.1371,-0.1325,-0.1325,-0.1324,-0.1324,0,-0.1016,-0.1047,-0.1095,-0.1146,-0.116,-0.1197,-0.1249,-0.1286,-0.1327,-0.1343,-0.1373,-0.1385,-0.1411,-0.1412,-0.1407,-0.142,-0.1404,-0.1383,-0.1379,-0.1284,-0.1235,-0.1296,-0.132,-0.1321,-0.1321,-0.1321,-0.1321,0,-0.099,-0.1052,-0.109,-0.111,-0.1174,-0.1205,-0.1243,-0.1292,-0.1308,-0.1347,-0.1351,-0.1381,-0.1384,-0.1379,-0.1375,-0.139,-0.134,-0.1334,-0.1237,-0.123,-0.1311,-0.131,-0.132,-0.132,-0.132,-0.132,-0.132,0,-0.0981,-0.1011,-0.1083,-0.1101,-0.1135,-0.1192,-0.1219,-0.126,-0.1296,-0.1315,-0.1356,-0.1363,-0.1378,-0.1361,-0.136,-0.129,-0.1322,-0.1246,-0.1209,-0.1327,-0.1328,-0.1309,-0.1309,-0.1318,-0.1319,-0.1319,-0.1319,0,-0.0941,-0.0995,-0.1033,-0.1103,-0.1124,-0.115,-0.12,-0.1214,-0.1261,-0.1285,-0.1299,-0.1338,-0.132,-0.1309,-0.1277,-0.1244,-0.1192,-0.1158,-0.1289,-0.126,-0.1111,-0.1113,-0.1044,-0.104,-0.1037,-0.1035,-0.1032,0,-0.0923,-0.0943,-0.1016,-0.1037,-0.1071,-0.111,-0.1133,-0.119,-0.121,-0.1273,-0.1282,-0.128,-0.1299,-0.116,-0.1176,-0.1112,-0.1107,-0.107,-0.1105,-0.1109,-0.1081,-0.1088,-0.1094,-0.1027,-0.1027,-0.1026,-0.1025,0,-0.0876,-0.0912,-0.094,-0.0975,-0.1012,-0.1034,-0.1084,-0.1081,-0.116,-0.1213,-0.1211,-0.1184,-0.1149,-0.1109,-0.1044,-0.1019,-0.1086,-0.1038,-0.1045,-0.1078,-0.1089,-0.1065,-0.1075,-0.1014,-0.1016,-0.1017,-0.1018,0,-0.0834,-0.0839,-0.0877,-0.0895,-0.0939,-0.0952,-0.0982,-0.1008,-0.1024,-0.1116,-0.1119,-0.1124,-0.1156,-0.1061,-0.1023,-0.0959,-0.0956,-0.0928,-0.0941,-0.0953,-0.0941,-0.0943,-0.0788,0,0,0,0,0,-0.0783,-0.0775,-0.0791,-0.0807,-0.0848,-0.0868,-0.0946,-0.0985,-0.1069,-0.1038,-0.1071,-0.1044,-0.098,-0.0981,-0.089,-0.0979,-0.0954,-0.0871,-0.0929,-0.0955,-0.0967,-0.0961,0,0,0,0,0,0,-0.0748,-0.0763,-0.0758,-0.0724,-0.0718,-0.075,-0.0796,-0.0863,-0.0849,-0.0941,-0.0899,-0.0968,-0.0904,-0.0993,-0.0859,-0.0858,-0.0871,-0.0879,-0.0876,-0.0948,-0.0959,-0.0969,-0.0967,0,0,0,0,0]},{"header":{"parameterUnit":"m.s-1","parameterCategory":2,"la1":30.2991,"la2":30.254,"lo1":-89.0895,"lo2":-89.0444,"dy":0.0017,"dx":0.0017,"nx":28,"ny":28,"refTime":"2025-11-19T09:00:00:Z","depth":"4","parameterNumber":3,"parameterNumberName":"V-component_of_CURRENTS"},"data":[0,0,0,0,0,0,0,0,0,0,0,0,0,0,0,0,0,0,0,0,0,0,0,0,0,0,0,0,0,0,0,0,0,0,0,0,0,0,0,0,0,0,0,0,0,0,0,0,0,0,0,0,0,0,0,0,0,0,-0.0505,-0.0505,0,-0.0531,-0.0531,-0.0532,-0.0536,-0.0536,-0.0536,-0.0535,-0.052,-0.052,-0.052,0,0,0,0,0,0,0,0,0,0,0,0,0,-0.0464,-0.0465,-0.0505,-0.0505,-0.0505,-0.0531,-0.0531,-0.0532,-0.0536,-0.0536,-0.0535,-0.0535,-0.052,-0.052,-0.052,0,0,0,0,0,0,0,0,0,0,0,0,0,-0.0486,-0.0465,-0.0505,-0.051,-0.051,-0.0531,-0.0531,-0.0532,-0.0536,-0.0536,-0.0535,-0.0535,-0.052,-0.052,-0.052,-0.053,0,0,-0.052,-0.052,0,0,0,0,0,0,0,0,-0.0485,-0.0488,-0.0509,-0.0509,-0.051,-0.0529,-0.0511,-0.0529,-0.0537,-0.0528,-0.0535,-0.0535,-0.0519,-0.0519,-0.0527,-0.0529,-0.0528,-0.052,-0.052,-0.052,-0.052,0,0,0,0,0,0,0,-0.0484,-0.0487,-0.0516,-0.0509,-0.051,-0.0512,-0.0515,-0.0515,-0.0526,-0.0529,-0.0529,-0.053,-0.0519,-0.0527,-0.0527,-0.0528,-0.052,-0.052,-0.052,-0.0519,-0.0561,-0.0562,0,0,0,0,0,0,-0.0478,-0.0486,-0.0516,-0.0517,-0.0495,-0.0513,-0.0516,-0.0524,-0.0527,-0.0527,-0.053,-0.053,-0.0528,-0.0527,-0.0526,-0.0561,-0.052,-0.0519,-0.0519,-0.0559,-0.0561,-0.0562,0,0,0,0,0,0,-0.0477,-0.0481,-0.0515,-0.05,-0.0505,-0.0514,-0.0523,-0.0525,-0.054,-0.0528,-0.0528,-0.0543,-0.0527,-0.0526,-0.0543,-0.0559,-0.0519,-0.0519,-0.0558,-0.056,-0.0561,-0.0615,0,0,0,0,0,0,-0.0476,-0.0481,-0.0493,-0.05,-0.0505,-0.0534,-0.0524,-0.0526,-0.054,-0.054,-0.0539,-0.0537,-0.0527,-0.0544,-0.0543,-0.0558,-0.0519,-0.0557,-0.0559,-0.0561,-0.0612,-0.0618,-0.0624,0,0,0,0,0,-0.0475,-0.0491,-0.0494,-0.0498,-0.0519,-0.0535,-0.0538,-0.0544,-0.0541,-0.0554,-0.0559,-0.0537,-0.0557,-0.0545,-0.0544,-0.0559,-0.0555,-0.0558,-0.0561,-0.0609,-0.0617,-0.0624,0,0,0,0,0,0,-0.0484,-0.0493,-0.0496,-0.0516,-0.0528,-0.0535,-0.0548,-0.0551,-0.0566,-0.0568,-0.0555,-0.0555,-0.0576,-0.0563,-0.055,-0.0578,-0.0551,-0.0554,-0.0588,-0.0596,-0.0602,-0.0593,-0.0519,0,0,0,0,0,-0.049,-0.0504,-0.0513,-0.053,-0.0536,-0.0545,-0.0554,-0.056,-0.0569,-0.0576,-0.0574,-0.0576,-0.0587,-0.0587,-0.0593,-0.0607,-0.0568,-0.0616,-0.0622,-0.0627,-0.062,-0.0594,-0.0596,-0.0571,-0.0571,-0.0571,0,0,-0.0499,-0.0505,-0.0514,-0.0533,-0.0541,-0.0557,-0.055,-0.0569,-0.0584,-0.0571,-0.0593,-0.06,-0.0598,-0.062,-0.0626,-0.0609,-0.0612,-0.0631,-0.0635,-0.0625,-0.0597,-0.0599,-0.0601,-0.0572,-0.0572,-0.0572,0,0,-0.0514,-0.0528,-0.0541,-0.0553,-0.0569,-0.0575,-0.0582,-0.0597,-0.0607,-0.0633,-0.0629,-0.0646,-0.0658,-0.0659,-0.0661,-0.0703,-0.065,-0.0707,-0.0724,-0.0699,-0.0701,-0.0701,-0.064,-0.0635,-0.0704,-0.0704,-0.0704,0,-0.0525,-0.0544,-0.0549,-0.0564,-0.0575,-0.0584,-0.0601,-0.0616,-0.0635,-0.0641,-0.0646,-0.0673,-0.0676,-0.0693,-0.0715,-0.0715,-0.0679,-0.0697,-0.0705,-0.0706,-0.0705,-0.0642,-0.0636,-0.0707,-0.0706,-0.0706,-0.0706,0,-0.0545,-0.0566,-0.0576,-0.0595,-0.0608,-0.0628,-0.0641,-0.0658,-0.0672,-0.068,-0.0708,-0.0722,-0.0727,-0.0743,-0.0745,-0.0751,-0.0718,-0.072,-0.0683,-0.0711,-0.0643,-0.0635,-0.0711,-0.071,-0.0709,-0.0708,0,0,-0.0556,-0.0585,-0.059,-0.0602,-0.0628,-0.0638,-0.0664,-0.0683,-0.0689,-0.0721,-0.0724,-0.077,-0.0768,-0.0771,-0.0775,-0.0766,-0.0739,-0.0747,-0.0744,-0.0678,-0.0653,-0.0588,-0.0572,-0.0744,-0.0743,-0.0743,-0.06,0,-0.0573,-0.0604,-0.0613,-0.0644,-0.0661,-0.0673,-0.069,-0.0708,-0.072,-0.0724,-0.0744,-0.0751,-0.078,-0.0781,-0.0783,-0.075,-0.0724,-0.0776,-0.0642,-0.0637,-0.057,-0.0564,-0.0741,-0.0594,-0.0592,-0.059,-0.0589,0,-0.059,-0.0608,-0.0642,-0.0664,-0.0671,-0.069,-0.0706,-0.0721,-0.0727,-0.0734,-0.0747,-0.0745,-0.0744,-0.0761,-0.0713,-0.0744,-0.0702,-0.0676,-0.067,-0.0583,-0.0558,-0.0564,-0.0575,-0.0576,-0.0577,-0.0578,-0.0579,0,-0.0592,-0.0626,-0.0653,-0.0664,-0.0691,-0.0706,-0.0717,-0.0728,-0.0729,-0.0728,-0.071,-0.072,-0.0699,-0.0678,-0.063,-0.0667,-0.0549,-0.0586,-0.048,-0.0473,-0.0551,-0.0552,-0.0537,-0.0537,-0.0537,-0.0538,-0.0538,0,-0.0605,-0.0628,-0.0659,-0.0675,-0.0698,-0.071,-0.0724,-0.0733,-0.0726,-0.0707,-0.071,-0.0677,-0.0679,-0.0614,-0.0594,-0.0492,-0.0511,-0.0466,-0.0435,-0.0575,-0.0581,-0.0544,-0.0546,-0.0532,-0.0533,-0.0534,-0.0535,0,-0.0606,-0.0632,-0.0661,-0.0692,-0.0704,-0.0718,-0.0729,-0.073,-0.0715,-0.0682,-0.0672,-0.0626,-0.0534,-0.0498,-0.0427,-0.0415,-0.0344,-0.0298,-0.0405,-0.0384,-0.0293,-0.0301,-0.0177,-0.0174,-0.0171,-0.0168,-0.0166,0,-0.0609,-0.0627,-0.0669,-0.0689,-0.0709,-0.0728,-0.074,-0.0737,-0.0724,-0.0641,-0.0614,-0.0509,-0.0471,-0.0301,-0.0285,-0.0194,-0.0203,-0.016,-0.0286,-0.0276,-0.0258,-0.027,-0.0281,-0.0162,-0.0161,-0.016,-0.0159,0,-0.0609,-0.0628,-0.0652,-0.0693,-0.0718,-0.0732,-0.0739,-0.0719,-0.0685,-0.066,-0.0537,-0.045,-0.0322,-0.0256,-0.0157,-0.0116,-0.0199,-0.0131,-0.0139,-0.0257,-0.0256,-0.0243,-0.0258,-0.0149,-0.0151,-0.0151,-0.0152,0,-0.0608,-0.0623,-0.066,-0.0689,-0.0724,-0.073,-0.073,-0.0688,-0.066,-0.0564,-0.0514,-0.0387,-0.0325,-0.0207,-0.0128,-0.0062,-0.0087,-0.0119,-0.0129,-0.0139,-0.0193,-0.0191,-0.0019,0,0,0,0,0,-0.0608,-0.0627,-0.0653,-0.0691,-0.0722,-0.0739,-0.0729,-0.0717,-0.0665,-0.0574,-0.0542,-0.0417,-0.0264,-0.0201,-0.0122,-0.0111,-0.0097,-0.0021,-0.0146,-0.0093,-0.0105,-0.0171,0,0,0,0,0,0,-0.0613,-0.0643,-0.0649,-0.0683,-0.0709,-0.0735,-0.0729,-0.0693,-0.0637,-0.057,-0.0486,-0.0419,-0.0277,-0.0309,-0.0127,-0.0104,-0.0178,0.0054,0.0056,-0.0086,-0.0097,-0.0106,-0.0179,0,0,0,0,0]}]]